Location: Buchberg
(46.9333°N, 15.8500°E)
Time: 19:58:45
(UTC+00:00)

Cosmos 1378 Rocket - Pass Details

Date: 14 July 2020
Orbit: 602 x 626 km, 82.5° (Epoch: 05 August)

Event Time Altitude Azimuth Distance (km) Brightness Sun altitude
Rises 02:16:34 0° 344° (NNW) 2,900 7.4 -8.7°
Reaches altitude 10° 02:18:53 10° 338° (NNW) 1,993 6.5 -8.4°
Maximum altitude 02:23:02 42° 268° (W) 896 4.1 -7.9°
Drops below altitude 10° 02:27:11 10° 198° (SSW) 1,990 5.6 -7.4°
Enters shadow 02:28:30 - 193° (SSW) 2,501 6.2 -7.2°
